(38) Leda
ephemeris date magn radius delta ra dec elong phase
Opposition25 May 202512.73.026 AU2.020 AU16h04m-29°04'171.9°2.7°
Today2 Jul 202513.43.062 AU2.231 AU15h37m-26°18'137.9°12.9°
(38) Leda - 2025-07-02
astro.vanbuitenen.nl


 
-1 year
-1 month
-1 day
Now
+1 day
+1 month
+1 year

The interactive orbit chart above shows the body's path through the solar system and its position at the given date. Green and blue lines are shown perpendicular to the ecliptic plane: Green if the path is above the ecliptic plane, blue if it is below. (Left-click and drag to rotate the view; Right-click and drag to move the view; Use scroll wheel to zoom in our out.)

The orbital elements of Leda are:

            e (Eccentricity)                : 0.1509406
            a (Semimajor axis)              : 2.7423823
            i (Inclination)                 : 6.95128
            Ω (Longitude of ascending node) : 295.49605
            ω (Argument of perihelion)      : 169.73419
            M (Mean anomaly)                : 122.41782
            Epoch                           : 2025 May 05

            L (Longitude of perihelion)     : 285.30411
            B (Latitude of perihelion)      : 1.23588
            P (Orbital period in years)     : 4.54            
        

The light curve chart below shows the estimated development of the minor planet's magnitude.


The all-sky chart below shows the path of the minor planet over the same period as the light curve. The current position is marked yellow.





The following chart shows the path of the minor planet in the next few days. The field of view is optimized for (~10x50) binoculars and finderscopes. A more printer-friendly version of the same chart can be found below.




Ephemerides:
Date       Time       RA (2000)    DEC (2000)    delta   radius  elong  phase   PA    magn
2025-07-02 00:00 UT   15 37 53.0   -26 18 51     2.231    3.062  137.9   12.9    96   13.4 
2025-07-02 02:25 UT   15 37 51.0   -26 18 27     2.232    3.062  137.8   12.9    96   13.4 
2025-07-03 00:00 UT   15 37 33.4   -26 14 48     2.241    3.063  136.9   13.1    96   13.4 
2025-07-04 00:00 UT   15 37 15.3   -26 10 48     2.251    3.064  135.9   13.4    97   13.5 
2025-07-05 00:00 UT   15 36 58.6   -26 06 52     2.262    3.064  134.8   13.6    97   13.5 
2025-07-06 00:00 UT   15 36 43.4   -26 03 01     2.272    3.065  133.8   13.8    97   13.5 
2025-07-07 00:00 UT   15 36 29.7   -25 59 14     2.283    3.066  132.8   14.1    98   13.5 
2025-07-08 00:00 UT   15 36 17.5   -25 55 32     2.294    3.067  131.8   14.3    98   13.5 
2025-07-09 00:00 UT   15 36 06.8   -25 51 54     2.305    3.068  130.9   14.5    98   13.6 
2025-07-10 00:00 UT   15 35 57.5   -25 48 20     2.316    3.069  129.9   14.7    98   13.6 
2025-07-11 00:00 UT   15 35 49.8   -25 44 52     2.328    3.070  128.9   14.9    99   13.6 
2025-07-12 00:00 UT   15 35 43.4   -25 41 28     2.339    3.071  127.9   15.1    99   13.6 
2025-07-13 00:00 UT   15 35 38.5   -25 38 09     2.351    3.071  126.9   15.3    99   13.6 
2025-07-14 00:00 UT   15 35 35.1   -25 34 55     2.363    3.072  126.0   15.5    99   13.6 
2025-07-15 00:00 UT   15 35 33.1   -25 31 46     2.375    3.073  125.0   15.7    99   13.7 
2025-07-16 00:00 UT   15 35 32.6   -25 28 43     2.387    3.074  124.1   15.9   100   13.7 
2025-07-17 00:00 UT   15 35 33.5   -25 25 44     2.399    3.075  123.1   16.1   100   13.7 
2025-07-18 00:00 UT   15 35 35.8   -25 22 50     2.412    3.076  122.2   16.2   100   13.7 
2025-07-19 00:00 UT   15 35 39.5   -25 20 02     2.424    3.076  121.2   16.4   100   13.7 
2025-07-20 00:00 UT   15 35 44.6   -25 17 19     2.437    3.077  120.3   16.6   100   13.8 
2025-07-21 00:00 UT   15 35 51.1   -25 14 41     2.450    3.078  119.3   16.7   100   13.8 
2025-07-22 00:00 UT   15 35 59.0   -25 12 08     2.463    3.079  118.4   16.9   100   13.8 
2025-07-23 00:00 UT   15 36 08.3   -25 09 40     2.476    3.080  117.5   17.0   101   13.8 
2025-07-24 00:00 UT   15 36 19.0   -25 07 18     2.489    3.080  116.6   17.2   101   13.8 
2025-07-25 00:00 UT   15 36 31.0   -25 05 01     2.502    3.081  115.7   17.3   101   13.8 
2025-07-26 00:00 UT   15 36 44.4   -25 02 50     2.515    3.082  114.8   17.4   101   13.9 
2025-07-27 00:00 UT   15 36 59.1   -25 00 43     2.529    3.083  113.9   17.5   101   13.9 
2025-07-28 00:00 UT   15 37 15.2   -24 58 42     2.542    3.084  113.0   17.7   101   13.9 
2025-07-29 00:00 UT   15 37 32.5   -24 56 46     2.556    3.084  112.1   17.8   101   13.9 
2025-07-30 00:00 UT   15 37 51.2   -24 54 55     2.570    3.085  111.2   17.9   101   13.9 
2025-07-31 00:00 UT   15 38 11.1   -24 53 09     2.583    3.086  110.3   18.0   101   13.9 
2025-08-01 00:00 UT   15 38 32.4   -24 51 29     2.597    3.087  109.4   18.1   102   13.9 


    Terminology:
            
    delta:  distance between minor planet and earth in AU
    radius: distance between minor planet and sun in AU
    magn:   magnitude (brightness) estimate    
    ra:     right ascension in hours (24h = 360deg)
    dec:    declination in degrees
    elong:  elongation in degrees (angle sun-earth-minor planet)    
    phase:  phase angle in degrees (angle sun-minor planet-earth)        
    AU:     Astronomical Unit (mean distance between earth and sun: 149597870.7 km
    

Orbital elements provided by the MPC (Minor Planet Center).
Calculations by a modified version of AAPlus, a C# implementation of the AA+ project by PJ Naughter from the algorithms presented in the book "Astronomical Algorithms" by Jean Meeus.
NGC2000 dso catalog and star labels from VizieR as provided by the Strasbourg astronomical Data Center.
Tycho2 catalog from the ESO archive.